This demonstration page uses our WeatherBlox Daily Observations layout. Learn more.

Left ArrowRight Arrow

53.62937, 11.41316

Hourly Observations for April 26, 2022

Temp ( °F °C ) Dew Point ( °F °C ) Humidity (%) Winds ( mph kmh ) Pressure ( in mb ) Visibility ( mi km ) Precip ( " mm )
12:20 am 00:20 Mostly Clear 39 4 34 1 81 81 Calm 29.98 1015 30 48 N/A
12:50 am 00:50 Mostly Clear 37 3 32 0 81 81 Calm 29.98 1015 30 48 N/A
1:20 am 01:20 Mostly Clear 37 3 32 0 81 81 SSE 1 2 29.98 1015 30 48 N/A
1:50 am 01:50 Mostly Clear 36 2 32 0 87 87 VRB 1 2 30.01 1016 30 48 N/A
2:20 am 02:20 Mostly Clear 34 1 30 -1 87 87 Calm 30.01 1016 30 48 N/A
2:50 am 02:50 Mostly Clear 36 2 32 0 87 87 Calm 30.01 1016 30 48 N/A
3:20 am 03:20 Mostly Clear 34 1 32 0 93 93 Calm 30.01 1016 30 48 N/A
3:50 am 03:50 Mostly Clear 34 1 32 0 93 93 Calm 30.01 1016 30 48 N/A
4:20 am 04:20 Mostly Clear 32 0 32 0 100 100 Calm 30.01 1016 30 48 N/A
4:50 am 04:50 Mostly Clear 32 0 30 -1 93 93 Calm 30.01 1016 30 48 N/A
5:20 am 05:20 Mostly Clear 32 0 30 -1 93 93 VRB 1 2 30.01 1016 30 48 N/A
5:50 am 05:50 Mostly Clear 32 0 30 -1 93 93 SSE 1 2 30.01 1016 30 48 N/A
6:20 am 06:20 Mostly Sunny 32 0 30 -1 93 93 Calm 30.01 1016 6 9 N/A
6:50 am 06:50 Mostly Sunny 32 0 32 0 100 100 Calm 30.01 1016 7 11 N/A
7:20 am 07:20 Mostly Sunny 36 2 34 1 93 93 Calm 30.01 1016 7 11 N/A
7:50 am 07:50 Mostly Sunny 41 5 37 3 87 87 Calm 30.00 1016 7 11 N/A
8:20 am 08:20 Mostly Sunny 45 7 39 4 81 81 VRB 2 4 30.00 1016 7 11 N/A
8:50 am 08:50 Mostly Sunny 48 9 41 5 76 76 ENE 3 6 30.03 1017 7 11 N/A
9:20 am 09:20 Mostly Sunny 50 10 37 3 62 62 ENE 6 9 30.03 1017 7 11 N/A
9:50 am 09:50 Mostly Sunny 52 11 37 3 58 58 E 5 7 30.03 1017 7 11 N/A
10:20 am 10:20 Mostly Sunny 54 12 37 3 54 54 NE 5 7 30.03 1017 7 11 N/A
10:50 am 10:50 Mostly Sunny 54 12 34 1 47 47 VRB 5 7 30.03 1017 7 11 N/A
11:20 am 11:20 Mostly Sunny 55 13 32 0 41 41 ENE 5 7 30.03 1017 7 11 N/A
11:50 am 11:50 Mostly Sunny 54 12 30 -1 41 41 WNW 3 6 30.03 1017 7 11 N/A
12:20 pm 12:20 Mostly Sunny 57 14 32 0 39 39 VRB 2 4 30.03 1017 7 11 N/A
12:50 pm 12:50 Mostly Sunny 57 14 30 -1 36 36 NNW 9 15 30.03 1017 7 11 N/A
1:20 pm 13:20 Mostly Sunny 59 15 32 0 36 36 VRB 7 11 30.03 1017 7 11 N/A
1:50 pm 13:50 Mostly Sunny 57 14 32 0 39 39 NNW 8 13 30.03 1017 7 11 N/A
2:20 pm 14:20 Mostly Sunny 59 15 34 1 39 39 VRB 6 9 30.03 1017 7 11 N/A
2:50 pm 14:50 Mostly Sunny 59 15 32 0 36 36 NNE 7 11 30.03 1017 7 11 N/A
3:20 pm 15:20 Mostly Sunny 59 15 30 -1 34 34 VRB 3 6 30.03 1017 7 11 N/A
3:50 pm 15:50 Mostly Sunny 57 14 34 1 41 41 NNW 5 7 30.03 1017 7 11 N/A
4:20 pm 16:20 Mostly Sunny 57 14 34 1 41 41 NE 9 15 30.03 1017 7 11 N/A
4:50 pm 16:50 Mostly Sunny 57 14 32 0 39 39 ENE 8 13 30.03 1017 7 11 N/A
5:20 pm 17:20 Mostly Sunny 57 14 34 1 41 41 NE 9 15 30.03 1017 7 11 N/A
5:50 pm 17:50 Mostly Sunny 55 13 34 1 44 44 NNE 12 19 30.03 1017 7 11 N/A
6:20 pm 18:20 Mostly Sunny 55 13 34 1 44 44 NNE 12 19 30.06 1018 7 11 N/A
6:50 pm 18:50 Mostly Sunny 55 13 32 0 41 41 NE 12 19 30.06 1018 7 11 N/A
7:20 pm 19:20 Mostly Sunny 54 12 34 1 47 47 NE 9 15 30.06 1018 7 11 N/A
7:50 pm 19:50 Mostly Sunny 54 12 34 1 47 47 NE 7 11 30.06 1018 7 11 N/A
8:20 pm 20:20 Mostly Sunny 50 10 34 1 54 54 ENE 6 9 30.09 1019 7 11 N/A
8:50 pm 20:50 Mostly Clear 50 10 32 0 50 50 ENE 3 6 30.09 1019 7 11 N/A
9:20 pm 21:20 Mostly Clear 46 8 32 0 57 57 Calm 30.12 1020 30 48 N/A
9:50 pm 21:50 Mostly Clear 45 7 32 0 61 61 Calm 30.12 1020 30 48 N/A
10:20 pm 22:20 Mostly Clear 43 6 34 1 71 71 VRB 1 2 30.12 1020 30 48 N/A
10:50 pm 22:50 Mostly Clear 43 6 32 0 66 66 Calm 30.12 1020 30 48 N/A
11:20 pm 23:20 Mostly Clear 41 5 32 0 70 70 Calm 30.12 1020 30 48 N/A
11:50 pm 23:50 Mostly Clear 41 5 32 0 70 70 Calm 30.15 1021 30 48 N/A

Powered by AerisWeather